Regional Weather Roundup
Issued by NWS Kansas City/Pleasant Hill, MO

Home | Current Version | Previous Version | Graphics & Text | Print | Product List | Glossary Off
Versions: 1 2 3 4 5 6 7 8 9 10 11 12 13 14 15 16 17 18 19 20 21 22 23 24 25 26 27 28 29 30 31 32 33 34 35 36 37 38 39 40 41 42 43 44 45 46 47 48 49 50

000
ASUS43 KEAX 202110
RWREAX

WEATHER ROUNDUP FOR EASTERN KANSAS AND NORTHWEST MISSOURI
NATIONAL WEATHER SERVICE KANSAS CITY/PLEASANT HILL MO
300 PM CST MON FEB 20 2017

KSZ040-057-103>105-MOZ028-029-037-043-202200-
...KANSAS CITY METROPOLITAN AREA...

CITY           SKY/WX    TMP DP  RH WIND       PRES   REMARKS
K.C. INTL      CLOUDY    67  52  58 S14       29.81S
K.C. DOWNTOWN  CLOUDY    69  51  52 SW18G24   29.81S
LEES SUMMIT    CLOUDY    68  51  54 SW16G22   29.84S
OLATHE - IXD   CLOUDY    66  51  58 SW15      29.84R
OLATHE - OJC   CLOUDY    65  51  60 SW10G24   29.84R
LAWRENCE       PTSUNNY   66  53  63 S14       29.82F

$$

MOZ001>008-011>017-020>025-030>033-038>040-044>046-053-054-202200-
...NORTHERN AND CENTRAL MISSOURI...

CITY           SKY/WX    TMP DP  RH WIND       PRES   REMARKS
ST. JOSEPH     CLOUDY    66  55  67 SW14      29.80R
WARRENSBURG    CLOUDY    64  55  72 S12       29.85F
WHITEMAN AFB   CLOUDY    66  63  88 W9        29.85R
CLINTON        CLOUDY    68  57  68 S7        29.86S
SEDALIA        CLOUDY    69  58  67 SW14      29.88R
WARSAW         NOT AVBL
CHILLICOTHE      N/A     66  59  78 S14       29.83R
KIRKSVILLE     CLOUDY    67  57  70 SW13G24   29.86R

$$

MOZ041-047>049-056>058-063>065-088>090-097-202200-
...EASTERN AND SOUTHERN MISSOURI...

CITY           SKY/WX    TMP DP  RH WIND       PRES   REMARKS
ST. LOUIS INTL CLOUDY    78  51  38 S16G26    29.92F
SPIRIT OF STL  CLOUDY    76  51  41 SE15G21   29.90F
COLUMBIA       CLOUDY    75  57  53 S23G30    29.86R
JEFFERSON CITY CLOUDY    76  56  49 S12       29.86R
ROLLA          MOSUNNY   76  54  46 S21G31    29.87F
OSAGE BEACH    CLOUDY    73  58  59 S10       29.88S
SPRINGFIELD    CLOUDY    69  58  67 SW15      29.89R
BRANSON        PTSUNNY   68  59  73 S12G17    29.90F
JOPLIN         CLOUDY    65  57  75 S14       29.90R
WEST PLAINS    CLOUDY    75  58  55 S17G24    29.93F

$$

IAZ060-094-KSZ022-034>040-054-083-096-NEZ052-066-093-202200-
...KANSAS...SOUTHEAST NEBRASKA AND IOWA...

CITY           SKY/WX    TMP DP  RH WIND       PRES   REMARKS
TOPEKA         CLOUDY    64  54  69 S14       29.81R
MANHATTAN      CLOUDY    60  53  77 S10       29.79R
EMPORIA        CLOUDY    61  52  72 S16       29.84R
CHANUTE        PTSUNNY   64  52  64 SW17      29.86F
WICHITA        CLOUDY    60  53  77 S14       29.81F
OMAHA          CLOUDY    61  55  81 SW6       29.75R
LINCOLN        CLOUDY    64  51  62 W14       29.76F
FALLS CITY     CLOUDY    63  56  78 S7        29.77S
LAMONI         CLOUDY    61  58  90 S14       29.80R
DES MOINES     DRIZZLE   60  58  92 S13       29.77S

$$




USA.gov is the U.S. government's official web portal to all federal, state and local government web resources and services.